IRIDIUM 33

Last updated on Sun Jun 21 2026 00:02:36 GMT+0000 (Coordinated Universal Time)

1 24946U 97051C 26171.42978087 .00000176 00000+0 54705-4 0 9997 2 24946 86.3874 348.5954 0006528 329.6462 30.4355 14.35150188505550
UTC large
Height (km)
Speed (km/s)
/
Latitude / Longitude
Inclination (degrees)
Orbital Period (minutes)
Azimuth
Elevation
Range (km)
Doppler Factor

Next 0 passes for location: London (51.5072 / 0.1276)

No passes found over London.
IRIDIUM 33